Location: Cleveland
(41.4990°N, 81.6960°W)
Time: 14:56:44
(UTC-04:00)

ISS - Visible Passes

Search period start: 24 September 2022 00:00
Search period end: 04 October 2022 00:00
Orbit: 414 x 417 km, 51.6° (Epoch: 24 September)

Date Brightness Start Highest point End Pass type
(mag) Time Alt. Az. Time Alt. Az. Time Alt. Az.
24 Sep -1.3 19:57:50 10° NW 19:59:58 16° N 20:02:07 10° NNE visible
24 Sep -1.1 21:35:21 10° NNW 21:36:41 15° N 21:36:41 15° N visible
25 Sep -1.4 20:46:43 10° NNW 20:48:49 15° N 20:49:51 14° NNE visible
26 Sep -1.3 19:57:55 10° NW 19:59:54 15° N 20:01:51 10° NE visible
26 Sep -1.2 21:34:36 10° NW 21:35:54 18° NNW 21:35:54 18° NNW visible
27 Sep -1.9 20:46:03 10° NNW 20:48:38 20° NNE 20:49:03 20° NNE visible
28 Sep -1.6 19:57:27 10° NNW 19:59:44 17° NNE 20:02:01 10° NE visible
28 Sep -1.3 21:33:46 10° NW 21:35:07 21° NW 21:35:07 21° NW visible
29 Sep -2.7 20:45:11 10° NW 20:48:16 33° NNE 20:48:19 33° NNE visible
30 Sep -2.2 19:56:35 10° NW 19:59:25 24° NNE 20:01:34 14° ENE visible
30 Sep -1.3 21:33:02 10° WNW 21:34:27 23° WNW 21:34:27 23° WNW visible
01 Oct -3.9 20:44:18 10° NW 20:47:39 76° NE 20:47:45 75° ENE visible
02 Oct -3.3 19:55:36 10° NW 19:58:52 46° NNE 20:01:08 17° E visible
02 Oct -1.0 21:32:44 10° W 21:34:02 17° W 21:34:02 17° W visible
03 Oct -2.6 20:43:37 10° WNW 20:46:46 38° SW 20:47:30 33° S visible
